Probability
2 1 1 2 1 0 0 0 0 0 0 0 0 0 0 0 0 0 0 0 0 0 0 0 0 0 0 0 0 0 0 0 0 0 0 0 0 0 0 0 0 0 0
2 1 1 1 1 0 0 0 0 0 0 0 0 0 0 0 0 0 0 0 0 0 0 0 0 0 0 0 0 0 0 0 0 0 0 0 0 0 0 0 0 0 0
1 0 0 0 0 0 0 0 0 0 0 0 0 0 0 0 0 0 0 0 0 0 0 0 0 0 0 0 0 0 0 0 0 0 0 0 0 0 0 0 0 0 0
0 0 0 0 1 1 0 0 0 0 0 0 0 0 0 0 0 0 0 0 0 0 0 0 0 0 0 0 0 0 0 0 0 0 0 0 0 0 0 0 0 0 0
0 0 0 0 1 1 1 0 0 0 0 0 0 0 0 0 0 0 0 0 0 0 0 0 0 0 0 0 0 0 0 0 0 0 0 0 0 0 0 0 0 0 0
0 0 0 0 1 1 1 0 0 0 0 0 0 0 0 0 0 0 0 0 0 0 0 0 0 0 0 0 0 0 0 0 0 0 0 0 0 0 0 0 0 0 0
0 1 1 1 1 0 0 0 0 0 0 0 0 0 0 0 0 0 0 0 0 0 0 0 0 0 0 0 0 0 0 0 0 0 0 0 0 0 0 0 0 0 0
0 1 2 3 2 1 1 0 0 0 0 0 0 0 0 0 0 0 0 0 0 0 0 0 0 0 0 0 0 0 0 0 0 0 0 0 0 0 0 0 0 0 0
0 1 3 4 3 2 1 0 0 0 0 0 0 0 0 0 0 0 0 0 0 0 0 0 0 0 0 0 0 0 0 0 0 0 0 0 0 0 0 0 0 0 0
0 1 3 5 4 3 2 1 0 0 0 0 0 0 0 0 0 0 0 0 0 0 0 0 0 0 0 0 0 0 0 0 0 0 0 0 0 0 0 0 0 0 0
0 1 4 5 5 3 2 1 0 0 0 0 0 1 0 0 0 0 0 0 0 0 0 0 0 0 0 0 0 0 0 0 0 0 0 0 0 0 0 0 0 0 0
1 2 2 3 3 2 1 1 0 0 0 0 0 1 1 0 0 0 0 0 0 0 0 0 0 0 0 0 0 0 0 0 0 0 0 0 0 0 0 0 0 0 0
2 2 1 1 1 1 0 0 0 0 0 0 0 1 2 1 0 0 0 0 0 0 0 0 0 0 0 0 0 0 0 0 0 0 0 0 0 0 0 0 0 0 0
2 2 1 0 0 0 0 0 0 0 0 0 0 1 1 1 0 0 0 0 0 0 0 0 0 0 0 0 0 0 0 0 0 0 0 0 0 0 0 0 0 0 0
2 1 0 0 0 0 0 0 0 0 0 0 0 0 1 0 0 0 0 0 0 0 0 0 0 0 0 0 0 0 0 0 0 0 0 0 0 0 0 0 0 0 0
2 1 0 0 0 0 0 0 0 0 0 0 0 1 1 1 0 0 0 0 0 0 0 0 0 0 0 0 0 0 0 0 0 0 0 0 0 0 0 0 0 0 0
2 1 0 0 0 0 1 1 1 1 0 0 0 1 1 1 0 0 0 0 0 0 0 0 0 0 0 0 0 0 0 0 0 0 0 0 0 0 0 0 0 0 0
2 1 0 0 0 0 1 2 2 2 1 0 0 0 0 0 0 0 0 0 0 0 0 0 0 0 0 0 0 0 0 0 0 0 0 0 0 0 0 0 0 0 0
2 1 0 0 0 0 1 2 3 3 2 1 0 0 0 0 0 0 0 0 0 0 0 0 0 0 0 0 0 0 0 0 0 0 0 0 0 0 0 0 0 0 0
2 1 0 0 0 0 1 2 3 3 2 1 0 0 0 0 0 0 0 0 0 0 0 0 0 0 0 0 0 0 0 0 0 0 0 0 0 0 0 0 0 0 0
2 1 0 0 0 0 1 2 3 3 2 1 0 0 0 0 0 0 0 0 0 0 0 0 0 0 0 0 0 0 0 0 0 0 0 0 0 0 0 0 0 0 0
1 0 0 0 0 0 1 3 3 3 2 1 0 0 0 0 0 0 0 0 0 0 0 0 0 0 0 0 0 0 0 0 0 0 0 0 0 0 0 0 0 0 0
0 0 0 0 0 0 1 2 3 3 3 1 0 0 0 0 0 0 0 0 0 0 0 0 0 0 0 0 0 0 0 0 0 0 0 0 0 0 0 0 0 0 0
0 0 0 0 0 0 1 1 2 3 3 2 0 0 0 0 0 0 0 0 0 0 0 0 0 0 0 0 0 0 0 0 0 0 0 0 0 0 0 0 0 0 0
0 0 0 0 0 0 0 0 1 3 3 1 0 0 0 0 0 0 0 0 0 0 0 0 0 0 0 0 0 0 0 0 0 0 0 0 0 0 0 0 0 0 0
0 0 0 0 0 0 0 0 1 2 2 1 0 0 0 0 0 0 0 0 0 0 0 0 0 0 0 0 0 0 0 0 0 0 0 0 0 0 0 0 0 0 0
Wind_Speed
5 5 6 6 6 5 5 5 5 4 4 3 2 2 2 1 2 2 2 3 3 3 3 2 2 3 3 2 2 2 3 3 2 3 3 3 3 3 2 2 2 3 3
5 5 5 5 6 6 5 5 5 4 4 3 2 2 2 1 1 1 2 2 3 3 3 3 2 2 2 3 3 3 2 2 2 2 2 3 4 4 4 3 2 2 2
9 7 7 6 6 6 6 6 5 4 4 4 3 3 3 2 2 2 2 2 2 2 2 2 2 2 2 2 2 2 3 1 2 2 2 2 1 3 3 3 3 3 2
7 7 7 7 7 6 5 5 5 5 4 4 4 4 3 2 1 0 0 1 2 2 2 2 2 2 1 1 1 2 1 2 1 1 1 1 2 1 2 3 3 3 3
7 8 8 8 6 5 5 5 5 5 4 4 5 5 3 1 1 1 1 2 2 2 1 1 2 1 1 1 1 2 1 1 1 0 0 1 1 1 1 2 3 3 2
5 6 6 6 5 4 4 5 6 5 4 4 4 5 4 3 2 1 1 1 1 1 2 1 1 1 1 0 1 1 1 1 1 1 1 1 1 0 1 1 1 2 2
5 5 6 5 6 6 5 5 6 5 4 4 4 4 4 4 3 2 1 1 0 1 1 1 1 0 0 0 1 1 1 1 1 1 0 0 0 1 1 1 0 1 2
4 5 6 6 6 7 6 6 6 5 4 4 4 3 4 3 2 2 2 2 1 1 1 0 0 0 0 1 1 1 0 1 1 1 0 0 0 1 1 2 2 1 1
3 4 6 6 6 6 6 6 6 5 4 4 4 3 3 3 3 2 2 1 1 1 0 0 0 1 1 1 1 1 0 1 1 0 0 0 1 0 0 1 2 2 1
3 4 4 5 5 6 5 5 5 5 4 3 3 3 3 2 3 2 2 2 1 0 1 1 1 1 1 1 2 1 1 1 1 0 1 1 1 1 0 1 1 1 2
3 3 4 4 5 4 5 5 4 4 3 3 3 3 2 2 2 2 2 2 1 1 1 1 1 1 1 1 2 1 1 1 1 1 1 1 1 0 1 0 0 1 1
3 3 3 3 4 4 4 4 4 4 4 3 3 3 2 2 2 1 1 1 1 1 1 1 1 1 1 1 1 1 0 1 0 1 1 1 1 1 0 0 0 0 1
2 2 3 3 3 3 3 4 4 4 4 4 4 3 2 2 2 2 1 1 1 1 1 1 1 1 1 1 1 1 1 0 1 1 1 1 0 1 1 0 0 0 0
3 2 3 3 3 3 3 4 3 3 3 4 4 3 3 3 2 2 2 1 1 2 1 1 1 1 1 1 1 1 0 0 1 1 1 1 1 2 1 1 1 0 0
2 3 2 2 3 2 2 3 3 3 3 4 3 3 2 2 2 2 2 1 2 2 2 2 1 1 1 1 1 1 1 1 1 2 2 1 1 2 1 1 1 1 0
3 3 3 3 3 3 3 3 3 3 3 4 3 2 3 3 2 2 2 2 2 1 2 2 2 1 1 2 3 3 1 1 1 1 2 2 1 2 3 3 2 1 1
4 4 4 3 3 3 4 3 3 3 4 4 3 3 3 2 2 2 2 2 2 1 1 1 2 1 1 2 3 4 2 1 1 1 2 2 3 3 2 3 3 3 3
4 4 3 3 2 2 2 3 3 3 4 4 3 3 3 3 2 2 2 1 1 1 1 1 1 1 2 3 3 3 2 1 1 1 1 1 3 3 3 2 2 2 3
3 3 3 3 2 2 3 4 3 3 3 3 3 3 3 3 3 2 2 1 1 1 1 1 1 1 2 3 4 3 1 1 2 2 2 2 2 5 4 2 2 3 4
2 2 2 3 3 2 3 5 3 3 3 3 4 4 4 4 3 3 2 1 1 1 2 1 1 1 1 2 3 3 1 1 2 2 3 4 5 5 4 1 1 3 3
3 3 3 3 3 3 4 4 3 3 3 3 2 3 3 4 3 2 1 1 2 2 1 1 1 0 1 2 3 3 1 0 1 1 2 3 6 6 6 4 2 4 3
3 3 3 2 2 3 4 4 3 2 1 2 2 3 3 3 3 2 2 1 2 2 1 1 0 1 2 2 2 3 2 2 0 1 2 3 5 6 6 4 5 5 3
3 3 3 3 2 2 3 3 2 1 2 2 2 3 2 2 3 3 3 2 2 2 1 1 1 1 1 2 4 3 3 3 1 1 4 4 5 5 4 5 6 4 1
2 2 3 3 1 1 2 2 2 2 2 2 2 2 3 2 2 2 3 3 3 2 2 2 2 1 1 2 2 1 1 2 2 2 3 4 4 3 3 4 4 2 2
1 2 2 2 2 1 1 1 2 3 2 2 2 1 2 3 2 2 2 3 4 4 3 3 3 2 2 3 4 2 1 1 1 1 1 2 2 2 2 3 3 2 3
2 2 2 1 1 1 1 1 2 3 3 2 1 2 2 2 2 2 1 1 1 1 2 2 2 2 3 3 3 3 3 3 2 1 0 1 1 2 2 2 3 2 2
Wind_Direction
187 159 150 143 135 131 128 126 122 120 116 110 110 100 84 60 45 46 55 59 58 61 68 66 59 58 70 72 77 69 58 41 44 56 24 8 13 26 32 33 38 35 31
167 155 147 144 146 148 145 139 138 139 132 134 138 133 132 115 88 41 41 51 58 58 72 73 72 68 72 65 66 73 70 43 40 73 63 11 355 358 10 17 30 29 28
180 171 160 155 150 151 159 156 153 147 134 124 106 86 67 45 37 30 20 17 50 60 68 79 80 73 82 88 79 87 92 72 3 47 104 113 278 318 336 6 20 22 28
174 166 163 162 164 165 160 155 153 146 139 132 128 128 126 131 189 195 13 15 38 54 65 81 85 83 81 89 78 80 90 109 59 354 29 129 153 159 316 336 1 7 18
174 167 166 167 165 159 154 157 146 140 142 140 139 135 129 142 141 86 57 24 15 29 48 90 96 88 81 78 66 65 72 95 118 101 31 44 49 81 156 294 328 348 356
160 158 161 152 146 143 140 149 149 149 151 145 143 145 147 146 133 115 81 16 354 356 13 56 88 100 93 89 90 83 85 75 83 86 91 113 119 215 152 197 296 319 323
150 145 148 152 153 150 149 147 148 155 157 150 153 161 160 160 165 173 171 159 317 329 324 12 47 47 310 139 93 92 69 79 91 88 81 125 167 185 167 144 171 306 313
148 154 160 158 160 160 159 152 152 156 154 156 164 166 160 160 172 179 172 186 204 234 264 53 311 308 63 62 81 95 50 65 74 41 35 53 290 183 165 166 151 70 338
150 157 159 155 157 160 163 159 158 160 162 159 152 155 158 162 172 179 174 185 223 229 193 111 82 28 60 87 102 102 82 79 74 51 34 10 317 316 193 163 162 147 169
150 154 154 160 161 163 162 155 156 161 160 152 154 150 155 160 169 163 173 189 211 186 114 79 82 73 62 69 88 91 78 88 48 53 49 360 332 341 20 156 167 161 161
160 157 155 154 152 150 150 154 154 146 146 150 146 137 146 151 147 153 180 191 189 171 150 162 146 128 108 94 97 94 83 85 18 8 30 328 327 11 343 38 137 158 149
159 150 148 140 137 149 154 155 156 155 159 157 144 148 148 137 128 141 160 145 140 168 158 147 135 145 136 142 138 149 87 106 332 316 349 313 334 355 338 39 127 187 177
138 132 133 146 157 156 154 155 160 167 160 150 148 146 142 140 149 152 129 109 121 110 98 120 170 180 189 196 187 176 198 209 256 263 251 273 288 310 309 319 237 236 292
150 149 149 153 160 160 158 159 169 168 155 142 142 148 156 159 159 147 130 122 117 114 105 100 141 157 164 191 169 152 178 309 301 286 259 261 240 241 256 284 257 232 98
148 165 165 163 154 150 153 149 151 157 150 140 144 159 158 145 136 128 128 119 115 107 116 100 81 79 93 88 80 93 71 20 344 335 315 295 303 312 306 305 267 179 169
182 178 171 159 165 166 169 160 155 157 147 143 152 154 136 131 137 144 137 122 108 95 88 93 96 66 29 28 41 58 73 48 22 339 329 321 332 343 340 333 321 263 209
185 181 181 181 179 180 169 170 174 155 152 155 152 147 140 136 142 141 121 124 121 107 98 88 91 71 350 30 39 47 73 69 3 339 346 345 339 341 324 324 327 307 278
182 189 180 172 165 163 152 149 142 144 149 155 157 156 152 146 136 122 125 129 138 136 127 104 90 60 11 26 29 42 58 47 1 332 328 341 329 333 347 335 340 328 304
183 179 170 155 143 143 145 136 130 138 142 159 171 171 162 152 144 147 161 158 129 116 127 137 99 68 1 18 32 48 57 36 3 346 350 354 332 331 356 9 333 320 314
139 136 128 117 130 144 143 135 144 152 171 185 190 182 170 164 167 173 171 143 125 132 127 103 103 91 1 7 23 44 84 43 356 345 340 345 346 342 346 340 302 298 298
120 121 124 134 152 145 135 141 150 183 203 190 179 177 172 171 168 157 145 141 129 111 104 107 85 19 347 358 17 33 69 130 330 334 329 323 336 341 342 337 298 288 297
107 120 119 122 134 138 134 142 173 203 177 156 159 164 170 171 151 142 146 149 144 135 140 128 44 323 319 340 350 358 354 353 235 292 304 316 337 340 343 342 337 325 321
119 127 127 122 120 139 143 156 192 162 143 146 165 176 171 170 158 160 162 157 162 164 182 180 215 278 295 312 334 340 339 336 328 303 325 339 346 345 345 348 349 351 1
120 115 125 127 129 147 149 167 171 149 142 159 181 180 171 173 167 168 168 168 180 183 191 200 217 252 277 283 293 296 311 327 331 329 327 336 344 346 342 347 349 354 350
125 132 144 157 168 150 139 166 162 147 146 157 177 176 180 182 182 188 197 194 202 199 196 205 205 210 241 266 289 302 286 289 290 347 359 357 354 354 349 345 344 346 351
144 141 141 147 162 140 133 176 168 155 158 166 188 194 187 187 185 188 239 291 253 251 239 232 226 245 267 285 288 296 309 326 6 59 9 322 316 310 313 318 325 326 320